contact:dominique.lefevre@mio.osupytheas.fr, maurice.libes@osupytheas.fr, didier.mallarino@osupytheas.fr
Project:EMSO http://www.emso-fr.org/EMSO-France
Depth: 2436.0 m
Title:EMSO Ligure Ouest : Data MII capteur AQUADOPP
Date,Latitude,Longitude,X_East,Y_North,Z_Up,Amplitude_X,Amplitude_Y,Amplitude_Z,Batterie,SoundSpeed,Heading,Pitch,Roll,Pressure,TIS,Speed,Direction
, degrees North, degrees East, m.s-1, m.s-1,m.s-1, 1, 1, 1, Volt, m.s-1, degree, degree, degree, dbar, degree_C, m.s-1, degree
2022-03-18T00:04:03,42.805,6.029,-0.044,0.0,-0.008,106.0,105.0,102.0,13.4,1505.2,328.2,-0.8,1.8,2470.717,13.28,0.044,270.0
2022-03-18T00:07:03,42.805,6.029,-0.053,-0.019,-0.032,105.0,105.0,102.0,13.3,1505.2,327.3,-0.7,1.8,2470.703,13.28,0.056,250.3
2022-03-18T00:10:03,42.805,6.029,-0.029,-0.018,-0.008,105.0,107.0,103.0,13.4,1505.2,324.8,-0.8,1.8,2470.671,13.28,0.034,238.2
2022-03-18T00:13:03,42.805,6.029,-0.034,-0.006,-0.015,105.0,105.0,103.0,13.4,1505.2,324.1,-0.7,1.8,2470.662,13.28,0.034,260.0
2022-03-18T00:16:03,42.805,6.029,-0.048,-0.017,-0.014,104.0,106.0,103.0,13.3,1505.2,329.8,-0.8,1.8,2470.681,13.28,0.05,250.5
2022-03-18T00:19:03,42.805,6.029,-0.05,-0.017,-0.02,106.0,105.0,104.0,13.3,1505.2,331.9,-0.8,1.8,2470.696,13.28,0.052,251.2
2022-03-18T00:22:03,42.805,6.029,-0.065,-0.008,-0.002,106.0,104.0,103.0,13.4,1505.2,323.9,-0.7,1.8,2470.681,13.28,0.065,263.0
2022-03-18T00:25:03,42.805,6.029,-0.045,-0.014,-0.025,106.0,104.0,102.0,13.4,1505.2,325.3,-0.7,1.8,2470.657,13.28,0.047,252.7
2022-03-18T00:28:03,42.805,6.029,-0.037,-0.014,-0.029,105.0,104.0,103.0,13.3,1505.2,328.7,-0.8,1.8,2470.681,13.28,0.039,249.3
2022-03-18T00:31:03,42.805,6.029,-0.057,-0.017,-0.03,104.0,105.0,103.0,13.4,1505.2,332.6,-0.7,1.8,2470.675,13.28,0.059,253.4
2022-03-18T00:34:03,42.805,6.029,-0.054,-0.008,-0.018,105.0,106.0,104.0,13.4,1505.2,331.3,-0.8,1.8,2470.673,13.28,0.054,261.6
2022-03-18T00:37:03,42.805,6.029,-0.052,0.001,-0.004,105.0,106.0,103.0,13.4,1505.2,331.4,-0.7,1.8,2470.703,13.28,0.052,271.1
2022-03-18T00:40:03,42.805,6.029,-0.046,-0.013,-0.005,104.0,103.0,104.0,13.4,1505.2,324.7,-0.8,1.8,2470.693,13.28,0.047,254.2
2022-03-18T00:43:03,42.805,6.029,-0.026,-0.01,-0.011,106.0,104.0,103.0,13.3,1505.2,330.0,-0.8,1.8,2470.625,13.28,0.027,249.0
2022-03-18T00:46:03,42.805,6.029,-0.038,0.003,0.01,107.0,103.0,103.0,13.4,1505.2,332.1,-0.8,1.8,2470.646,13.28,0.038,274.5
2022-03-18T00:49:03,42.805,6.029,-0.024,0.005,-0.024,106.0,105.0,103.0,13.3,1505.2,329.2,-0.7,1.8,2470.655,13.28,0.024,281.8
2022-03-18T00:52:03,42.805,6.029,-0.032,-0.002,-0.018,104.0,105.0,103.0,13.4,1505.2,326.2,-0.8,1.8,2470.655,13.28,0.032,266.4
2022-03-18T00:55:03,42.805,6.029,-0.034,-0.011,0.01,106.0,105.0,103.0,13.4,1505.2,326.1,-0.7,1.8,2470.639,13.28,0.035,252.1
2022-03-18T00:58:03,42.805,6.029,-0.033,-0.021,-0.036,106.0,105.0,103.0,13.4,1505.2,328.2,-0.8,1.8,2470.635,13.28,0.039,237.5
2022-03-18T01:04:03,42.805,6.029,-0.045,-0.009,0.011,106.0,106.0,104.0,13.4,1505.2,324.3,-0.8,1.8,2470.695,13.28,0.045,258.7
2022-03-18T01:07:03,42.805,6.029,-0.027,0.006,-0.039,106.0,105.0,103.0,13.4,1505.2,331.4,-0.8,1.8,2470.71,13.28,0.027,282.5
2022-03-18T01:10:03,42.805,6.029,-0.037,-0.01,-0.017,105.0,105.0,103.0,13.3,1505.2,322.6,-0.7,1.8,2470.659,13.28,0.038,254.9
2022-03-18T01:13:03,42.805,6.029,-0.027,-0.021,-0.024,106.0,104.0,102.0,13.4,1505.2,322.9,-0.8,1.8,2470.688,13.28,0.034,232.1
2022-03-18T01:16:03,42.805,6.029,-0.044,-0.003,-0.014,105.0,105.0,103.0,13.4,1505.2,327.7,-0.8,1.8,2470.639,13.28,0.044,266.1
2022-03-18T01:19:03,42.805,6.029,-0.046,-0.012,-0.016,106.0,104.0,103.0,13.4,1505.2,330.0,-0.8,1.8,2470.703,13.28,0.047,255.4
2022-03-18T01:22:03,42.805,6.029,-0.046,-0.013,-0.012,105.0,104.0,103.0,13.3,1505.2,327.7,-0.8,1.9,2470.689,13.28,0.047,254.2
2022-03-18T01:25:03,42.805,6.029,-0.02,-0.003,-0.02,106.0,104.0,103.0,13.3,1505.2,325.2,-0.8,1.8,2470.684,13.28,0.02,261.5
2022-03-18T01:28:03,42.805,6.029,-0.049,-0.008,-0.027,105.0,105.0,103.0,13.3,1505.2,324.1,-0.7,1.8,2470.683,13.28,0.049,260.7
2022-03-18T01:31:03,42.805,6.029,-0.022,-0.031,-0.056,105.0,106.0,103.0,13.4,1505.2,329.1,-0.8,1.8,2470.671,13.28,0.038,215.4
2022-03-18T01:34:03,42.805,6.029,-0.056,-0.01,-0.028,106.0,105.0,103.0,13.4,1505.2,329.2,-0.7,1.8,2470.675,13.28,0.056,259.9
2022-03-18T01:37:03,42.805,6.029,-0.051,-0.02,-0.007,105.0,105.0,102.0,13.3,1505.2,332.4,-0.7,1.8,2470.666,13.28,0.054,248.6
2022-03-18T01:40:03,42.805,6.029,-0.037,-0.021,-0.02,106.0,104.0,103.0,13.4,1505.2,324.3,-0.8,1.8,2470.615,13.28,0.042,240.4
2022-03-18T01:43:03,42.805,6.029,-0.04,-0.011,-0.043,103.0,104.0,104.0,13.3,1505.2,325.9,-0.7,1.8,2470.698,13.28,0.041,254.6
2022-03-18T01:46:03,42.805,6.029,-0.052,-0.036,-0.034,104.0,104.0,104.0,13.4,1505.2,330.4,-0.8,1.8,2470.672,13.28,0.063,235.3
2022-03-18T01:49:03,42.805,6.029,-0.026,-0.019,-0.042,105.0,104.0,103.0,13.3,1505.2,325.7,-0.8,1.8,2470.665,13.28,0.032,233.8
2022-03-18T01:52:03,42.805,6.029,-0.031,-0.027,-0.003,104.0,106.0,104.0,13.4,1505.2,324.5,-0.8,1.8,2470.663,13.29,0.041,228.9
2022-03-18T01:55:03,42.805,6.029,-0.051,-0.014,-0.012,105.0,104.0,103.0,13.4,1505.2,331.5,-0.7,1.9,2470.61,13.28,0.052,254.7
2022-03-18T01:58:03,42.805,6.029,-0.022,-0.037,0.0,105.0,105.0,103.0,13.4,1505.2,324.0,-0.8,1.8,2470.651,13.29,0.043,210.7
2022-03-18T02:04:03,42.805,6.029,-0.058,-0.016,-0.014,105.0,105.0,103.0,13.3,1505.2,324.1,-0.7,1.9,2470.696,13.28,0.06,254.6
2022-03-18T02:07:03,42.805,6.029,-0.039,-0.027,-0.009,106.0,104.0,103.0,13.4,1505.2,326.2,-0.7,1.8,2470.663,13.28,0.047,235.3
2022-03-18T02:10:03,42.805,6.029,-0.037,0.007,-0.008,105.0,104.0,103.0,13.4,1505.2,324.1,-0.8,1.8,2470.678,13.28,0.037,280.7
2022-03-18T02:13:03,42.805,6.029,-0.039,-0.037,-0.039,105.0,105.0,103.0,13.4,1505.2,327.5,-0.8,1.8,2470.681,13.28,0.053,226.5
2022-03-18T02:16:03,42.805,6.029,-0.03,-0.017,-0.04,105.0,105.0,103.0,13.3,1505.2,324.8,-0.8,1.8,2470.656,13.28,0.034,240.5
2022-03-18T02:19:03,42.805,6.029,-0.035,-0.012,-0.039,104.0,106.0,103.0,13.3,1505.2,328.7,-0.7,1.8,2470.668,13.28,0.037,251.1
2022-03-18T02:22:03,42.805,6.029,-0.045,-0.021,0.006,105.0,104.0,102.0,13.4,1505.2,324.6,-0.7,1.8,2470.639,13.28,0.049,245.0
2022-03-18T02:25:03,42.805,6.029,-0.038,0.004,0.024,105.0,105.0,103.0,13.4,1505.2,326.2,-0.8,1.8,2470.665,13.28,0.038,276.0
2022-03-18T02:28:03,42.805,6.029,-0.037,-0.022,-0.019,105.0,105.0,104.0,13.4,1505.2,326.3,-0.7,1.8,2470.661,13.28,0.043,239.3
2022-03-18T02:31:03,42.805,6.029,-0.043,0.004,-0.003,106.0,103.0,103.0,13.4,1505.2,332.9,-0.8,1.8,2470.67,13.28,0.043,275.3
2022-03-18T02:34:03,42.805,6.029,-0.042,-0.029,-0.021,106.0,105.0,103.0,13.4,1505.2,323.3,-0.7,1.8,2470.626,13.28,0.051,235.4
2022-03-18T02:37:03,42.805,6.029,-0.034,-0.009,-0.036,107.0,103.0,103.0,13.4,1505.2,330.0,-0.7,1.8,2470.639,13.28,0.035,255.2
2022-03-18T02:40:03,42.805,6.029,-0.037,-0.009,-0.005,106.0,105.0,104.0,13.4,1505.2,331.6,-0.7,1.8,2470.68,13.28,0.038,256.3
2022-03-18T02:43:03,42.805,6.029,-0.026,-0.002,-0.028,106.0,105.0,104.0,13.4,1505.2,324.1,-0.8,1.9,2470.663,13.29,0.026,265.6
2022-03-18T02:46:03,42.805,6.029,-0.059,0.0,-0.007,105.0,105.0,103.0,13.4,1505.2,331.8,-0.8,1.8,2470.655,13.29,0.058,270.0
2022-03-18T02:49:03,42.805,6.029,-0.028,-0.004,-0.01,106.0,105.0,103.0,13.3,1505.2,326.7,-0.7,1.8,2470.699,13.29,0.028,261.9
2022-03-18T02:52:03,42.805,6.029,-0.061,-0.03,-0.018,105.0,105.0,103.0,13.4,1505.2,332.2,-0.8,1.8,2470.685,13.29,0.067,243.8
2022-03-18T02:55:03,42.805,6.029,-0.056,-0.013,-0.011,105.0,105.0,103.0,13.4,1505.2,323.2,-0.8,1.8,2470.673,13.28,0.057,256.9
2022-03-18T02:58:03,42.805,6.029,-0.064,-0.022,-0.022,105.0,103.0,103.0,13.4,1505.2,328.5,-0.7,1.8,2470.661,13.28,0.067,251.0
2022-03-18T03:04:03,42.805,6.029,-0.057,0.007,-0.013,105.0,104.0,103.0,13.4,1505.2,330.0,-0.7,1.8,2470.713,13.28,0.057,277.0
2022-03-18T03:07:03,42.805,6.029,-0.059,-0.022,-0.003,105.0,106.0,103.0,13.4,1505.2,325.6,-0.8,1.8,2470.724,13.28,0.062,249.6
2022-03-18T03:10:03,42.805,6.029,-0.054,-0.012,-0.028,104.0,105.0,103.0,13.3,1505.2,325.8,-0.7,1.8,2470.715,13.28,0.055,257.5
2022-03-18T03:13:03,42.805,6.029,-0.049,-0.019,0.002,104.0,105.0,103.0,13.3,1505.2,326.2,-0.8,1.9,2470.684,13.28,0.052,248.8
2022-03-18T03:16:03,42.805,6.029,-0.083,-0.008,-0.014,106.0,104.0,102.0,13.4,1505.2,327.7,-0.8,1.8,2470.704,13.28,0.083,264.5
2022-03-18T03:19:03,42.805,6.029,-0.024,-0.014,-0.014,107.0,105.0,103.0,13.3,1505.2,323.4,-0.8,1.8,2470.698,13.28,0.027,239.7
2022-03-18T03:22:03,42.805,6.029,-0.057,-0.009,-0.023,105.0,106.0,102.0,13.3,1505.2,329.3,-0.8,1.8,2470.719,13.28,0.057,261.0
2022-03-18T03:25:03,42.805,6.029,-0.047,-0.016,-0.025,105.0,105.0,104.0,13.4,1505.2,329.4,-0.8,1.9,2470.736,13.28,0.049,251.2
2022-03-18T03:28:03,42.805,6.029,-0.033,-0.011,-0.009,105.0,105.0,103.0,13.3,1505.2,329.2,-0.8,1.8,2470.719,13.28,0.034,251.6
2022-03-18T03:31:03,42.805,6.029,-0.043,-0.009,-0.003,105.0,104.0,103.0,13.4,1505.2,328.3,-0.8,1.8,2470.705,13.28,0.043,258.2
2022-03-18T03:34:03,42.805,6.029,-0.059,0.011,-0.044,106.0,104.0,102.0,13.3,1505.2,327.9,-0.7,1.8,2470.679,13.28,0.06,280.6
2022-03-18T03:37:03,42.805,6.029,-0.052,0.009,-0.013,106.0,104.0,104.0,13.4,1505.2,328.7,-0.8,1.8,2470.696,13.29,0.052,279.8
2022-03-18T03:40:03,42.805,6.029,-0.046,0.006,-0.026,106.0,105.0,102.0,13.4,1505.2,329.2,-0.8,1.8,2470.729,13.29,0.046,277.4
2022-03-18T03:43:03,42.805,6.029,-0.035,-0.002,0.004,106.0,104.0,102.0,13.3,1505.2,328.8,-0.8,1.9,2470.72,13.29,0.035,266.7
2022-03-18T03:46:03,42.805,6.029,-0.045,0.0,-0.011,105.0,105.0,103.0,13.4,1505.2,327.7,-0.7,1.8,2470.685,13.29,0.045,270.0
2022-03-18T03:49:03,42.805,6.029,-0.06,-0.007,-0.031,105.0,105.0,103.0,13.4,1505.2,324.5,-0.8,1.8,2470.712,13.29,0.06,263.3
2022-03-18T03:52:03,42.805,6.029,-0.07,-0.007,-0.024,105.0,104.0,102.0,13.3,1505.2,328.0,-0.7,1.8,2470.74,13.29,0.07,264.3
2022-03-18T03:55:03,42.805,6.029,-0.046,-0.012,-0.005,106.0,106.0,102.0,13.4,1505.2,327.3,-0.7,1.8,2470.793,13.28,0.047,255.4
2022-03-18T03:58:03,42.805,6.029,-0.073,0.014,-0.03,105.0,103.0,104.0,13.4,1505.2,326.0,-0.7,1.8,2470.782,13.28,0.074,280.9
2022-03-18T04:04:03,42.805,6.029,-0.063,0.001,-0.029,105.0,104.0,103.0,13.4,1505.2,324.3,-0.7,1.8,2470.761,13.28,0.063,270.9
2022-03-18T04:07:03,42.805,6.029,-0.049,-0.002,-0.011,105.0,104.0,103.0,13.4,1505.2,328.4,-0.8,1.8,2470.758,13.28,0.049,267.7
2022-03-18T04:10:03,42.805,6.029,-0.067,0.006,-0.025,105.0,104.0,103.0,13.4,1505.2,325.6,-0.7,1.8,2470.732,13.28,0.067,275.1
2022-03-18T04:13:03,42.805,6.029,-0.054,-0.012,-0.013,105.0,105.0,103.0,13.3,1505.2,322.7,-0.7,1.8,2470.752,13.28,0.055,257.5
2022-03-18T04:16:03,42.805,6.029,-0.065,0.014,-0.017,104.0,105.0,104.0,13.3,1505.2,323.2,-0.7,1.8,2470.749,13.28,0.066,282.2
2022-03-18T04:19:03,42.805,6.029,-0.051,-0.012,-0.002,104.0,105.0,102.0,13.4,1505.2,331.3,-0.7,1.8,2470.791,13.28,0.052,256.8
2022-03-18T04:22:03,42.805,6.029,-0.04,0.011,-0.026,105.0,105.0,103.0,13.3,1505.2,324.7,-0.7,1.8,2470.763,13.28,0.041,285.4
2022-03-18T04:25:03,42.805,6.029,-0.062,0.013,-0.008,105.0,104.0,104.0,13.4,1505.2,328.7,-0.7,1.8,2470.766,13.28,0.063,281.8
2022-03-18T04:28:03,42.805,6.029,-0.053,-0.01,0.003,106.0,103.0,103.0,13.4,1505.2,324.6,-0.7,1.8,2470.751,13.28,0.053,259.3
2022-03-18T04:31:03,42.805,6.029,-0.051,0.003,-0.025,106.0,105.0,102.0,13.4,1505.2,324.9,-0.8,1.8,2470.763,13.29,0.051,273.4
2022-03-18T04:34:03,42.805,6.029,-0.069,0.015,0.0,106.0,104.0,104.0,13.4,1505.2,328.1,-0.8,1.8,2470.786,13.29,0.07,282.3
2022-03-18T04:37:03,42.805,6.029,-0.052,0.009,0.003,104.0,104.0,103.0,13.4,1505.2,324.7,-0.7,1.8,2470.763,13.29,0.052,279.8
2022-03-18T04:40:03,42.805,6.029,-0.066,0.003,-0.01,104.0,104.0,103.0,13.4,1505.2,323.6,-0.7,1.8,2470.773,13.29,0.066,272.6
2022-03-18T04:43:03,42.805,6.029,-0.056,0.009,-0.003,105.0,104.0,103.0,13.3,1505.2,331.9,-0.7,1.8,2470.786,13.29,0.056,279.1
2022-03-18T04:46:03,42.805,6.029,-0.058,0.007,0.012,105.0,104.0,102.0,13.4,1505.2,326.4,-0.7,1.8,2470.761,13.28,0.058,276.9
2022-03-18T04:49:03,42.805,6.029,-0.068,0.014,-0.016,106.0,106.0,103.0,13.4,1505.2,322.9,-0.7,1.8,2470.781,13.29,0.069,281.6
2022-03-18T04:52:03,42.805,6.029,-0.047,0.0,-0.032,104.0,105.0,103.0,13.4,1505.2,322.2,-0.7,1.8,2470.769,13.29,0.047,270.0
2022-03-18T04:55:03,42.805,6.029,-0.045,0.006,-0.005,105.0,105.0,103.0,13.4,1505.2,326.6,-0.7,1.8,2470.785,13.28,0.045,277.6
2022-03-18T04:58:03,42.805,6.029,-0.06,-0.012,-0.017,105.0,104.0,102.0,13.3,1505.2,324.3,-0.8,1.9,2470.807,13.29,0.061,258.7
2022-03-18T05:04:03,42.805,6.029,-0.059,0.008,-0.028,105.0,104.0,103.0,13.3,1505.2,325.9,-0.8,1.8,2470.829,13.28,0.059,277.7
2022-03-18T05:07:03,42.805,6.029,-0.045,-0.002,-0.04,106.0,105.0,103.0,13.4,1505.2,332.1,-0.7,1.8,2470.814,13.28,0.045,267.5
2022-03-18T05:10:03,42.805,6.029,-0.044,0.023,0.003,106.0,105.0,103.0,13.3,1505.2,328.6,-0.8,1.8,2470.816,13.28,0.049,297.6
2022-03-18T05:13:03,42.805,6.029,-0.073,-0.007,0.004,106.0,104.0,103.0,13.4,1505.2,326.7,-0.8,1.8,2470.841,13.28,0.073,264.5
2022-03-18T05:16:03,42.805,6.029,-0.063,0.001,-0.024,106.0,105.0,102.0,13.4,1505.2,327.7,-0.8,1.8,2470.882,13.28,0.063,270.9
2022-03-18T05:19:03,42.805,6.029,-0.03,-0.014,-0.056,106.0,105.0,102.0,13.4,1505.2,329.5,-0.7,1.8,2470.783,13.28,0.033,245.0
2022-03-18T05:22:03,42.805,6.029,-0.051,-0.001,-0.021,105.0,104.0,104.0,13.3,1505.2,323.6,-0.8,1.8,2470.755,13.29,0.051,268.9
2022-03-18T05:25:03,42.805,6.029,-0.044,0.008,-0.025,105.0,104.0,102.0,13.4,1505.2,328.2,-0.8,1.8,2470.802,13.28,0.044,280.3
2022-03-18T05:28:03,42.805,6.029,-0.048,-0.003,-0.033,105.0,104.0,103.0,13.3,1505.2,329.3,-0.7,1.8,2470.817,13.28,0.048,266.4
2022-03-18T05:31:03,42.805,6.029,-0.057,0.012,-0.02,106.0,105.0,103.0,13.4,1505.2,332.1,-0.7,1.8,2470.799,13.28,0.058,281.9
2022-03-18T05:34:03,42.805,6.029,-0.054,0.01,-0.004,105.0,104.0,102.0,13.4,1505.2,331.3,-0.7,1.8,2470.766,13.28,0.054,280.5
2022-03-18T05:37:03,42.805,6.029,-0.057,-0.004,-0.032,105.0,105.0,102.0,13.4,1505.2,330.6,-0.8,1.8,2470.811,13.28,0.057,266.0
2022-03-18T05:40:03,42.805,6.029,-0.068,0.023,-0.018,105.0,106.0,102.0,13.3,1505.2,329.9,-0.7,1.8,2470.806,13.28,0.071,288.7
2022-03-18T05:43:03,42.805,6.029,-0.045,-0.029,-0.022,104.0,106.0,103.0,13.4,1505.2,322.2,-0.8,1.8,2470.834,13.28,0.053,237.2
2022-03-18T05:46:03,42.805,6.029,-0.043,0.003,-0.017,105.0,103.0,104.0,13.4,1505.2,331.2,-0.8,1.8,2470.809,13.28,0.043,274.0
2022-03-18T05:49:03,42.805,6.029,-0.07,0.012,-0.025,105.0,104.0,103.0,13.4,1505.2,327.0,-0.8,1.8,2470.789,13.28,0.071,279.7
2022-03-18T05:52:03,42.805,6.029,-0.076,-0.003,0.022,105.0,104.0,103.0,13.3,1505.2,322.7,-0.7,1.8,2470.826,13.28,0.076,267.7
2022-03-18T05:55:03,42.805,6.029,-0.05,0.0,-0.026,105.0,104.0,103.0,13.4,1505.2,324.4,-0.7,1.8,2470.814,13.28,0.05,270.0
2022-03-18T05:58:03,42.805,6.029,-0.044,0.015,-0.012,104.0,104.0,103.0,13.4,1505.2,327.3,-0.8,1.8,2470.831,13.28,0.046,288.8
2022-03-18T06:04:03,42.805,6.029,-0.047,0.002,-0.004,105.0,105.0,103.0,13.4,1505.2,331.0,-0.8,1.8,2470.854,13.28,0.047,272.4
2022-03-18T06:07:03,42.805,6.029,-0.072,0.005,-0.003,104.0,105.0,104.0,13.3,1505.2,329.7,-0.8,1.9,2470.897,13.28,0.072,274.0
2022-03-18T06:10:03,42.805,6.029,-0.081,0.002,-0.037,105.0,103.0,102.0,13.4,1505.2,326.0,-0.8,1.8,2470.862,13.28,0.081,271.4
2022-03-18T06:13:03,42.805,6.029,-0.063,0.008,-0.018,104.0,103.0,103.0,13.3,1505.2,329.7,-0.8,1.8,2470.853,13.28,0.063,277.2
2022-03-18T06:16:03,42.805,6.029,-0.064,-0.013,-0.011,105.0,104.0,103.0,13.4,1505.2,323.7,-0.8,1.8,2470.897,13.28,0.065,258.5
2022-03-18T06:19:03,42.805,6.029,-0.047,0.021,0.003,104.0,105.0,104.0,13.4,1505.2,329.7,-0.8,1.8,2470.885,13.28,0.051,294.1
2022-03-18T06:22:03,42.805,6.029,-0.059,-0.014,-0.014,105.0,104.0,103.0,13.4,1505.2,325.9,-0.8,1.8,2470.895,13.28,0.06,256.7
2022-03-18T06:25:03,42.805,6.029,-0.065,-0.005,-0.007,105.0,104.0,103.0,13.4,1505.2,329.5,-0.8,1.8,2470.858,13.28,0.065,265.6
2022-03-18T06:28:03,42.805,6.029,-0.029,0.002,-0.027,104.0,105.0,103.0,13.3,1505.2,327.9,-0.7,1.8,2470.881,13.28,0.029,273.9
2022-03-18T06:31:03,42.805,6.029,-0.063,0.007,-0.013,104.0,105.0,103.0,13.3,1505.2,328.2,-0.7,1.8,2470.908,13.29,0.063,276.3
2022-03-18T06:34:03,42.805,6.029,-0.042,0.01,-0.01,104.0,105.0,103.0,13.4,1505.2,331.9,-0.8,1.8,2470.84,13.29,0.043,283.4
2022-03-18T06:37:03,42.805,6.029,-0.063,0.001,-0.021,105.0,104.0,103.0,13.3,1505.2,330.4,-0.8,1.8,2470.855,13.28,0.063,270.9
2022-03-18T06:40:03,42.805,6.029,-0.053,0.006,-0.014,105.0,103.0,103.0,13.4,1505.2,325.8,-0.8,1.8,2470.847,13.28,0.053,276.5
2022-03-18T06:43:03,42.805,6.029,-0.058,-0.001,-0.02,106.0,104.0,102.0,13.4,1505.2,325.9,-0.7,1.8,2470.874,13.28,0.058,269.0
2022-03-18T06:46:03,42.805,6.029,-0.055,0.005,-0.004,104.0,105.0,102.0,13.4,1505.2,330.2,-0.7,1.8,2470.926,13.28,0.055,275.2
2022-03-18T06:49:03,42.805,6.029,-0.067,0.0,-0.021,105.0,104.0,103.0,13.4,1505.2,323.1,-0.8,1.8,2470.889,13.29,0.066,270.0
2022-03-18T06:52:03,42.805,6.029,-0.064,-0.011,-0.012,104.0,105.0,103.0,13.4,1505.2,322.9,-0.8,1.8,2470.888,13.29,0.064,260.2
2022-03-18T06:55:03,42.805,6.029,-0.075,0.027,-0.005,104.0,104.0,103.0,13.3,1505.2,331.4,-0.8,1.8,2470.901,13.28,0.079,289.8
2022-03-18T06:58:03,42.805,6.029,-0.058,0.006,-0.01,105.0,102.0,103.0,13.4,1505.2,323.7,-0.8,1.8,2470.887,13.28,0.058,275.9
2022-03-18T07:04:03,42.805,6.029,-0.04,0.016,-0.036,104.0,102.0,103.0,13.4,1505.2,324.1,-0.8,1.8,2470.898,13.28,0.043,291.8
2022-03-18T07:07:03,42.805,6.029,-0.078,0.012,0.0,104.0,103.0,103.0,13.3,1505.2,332.4,-0.8,1.8,2470.929,13.28,0.078,278.7
2022-03-18T07:10:03,42.805,6.029,-0.075,0.015,0.0,105.0,103.0,103.0,13.4,1505.2,326.1,-0.7,1.8,2470.894,13.28,0.076,281.3
2022-03-18T07:13:03,42.805,6.029,-0.075,0.012,-0.017,104.0,104.0,103.0,13.3,1505.2,329.4,-0.8,1.8,2470.916,13.28,0.075,279.1
2022-03-18T07:16:03,42.805,6.029,-0.06,0.011,-0.013,103.0,103.0,102.0,13.4,1505.2,322.5,-0.7,1.8,2470.912,13.28,0.06,280.4
2022-03-18T07:19:03,42.805,6.029,-0.047,-0.01,0.032,105.0,105.0,101.0,13.4,1505.2,328.6,-0.7,1.8,2470.923,13.28,0.048,258.0
2022-03-18T07:22:03,42.805,6.029,-0.042,0.001,-0.017,104.0,103.0,103.0,13.4,1505.2,325.7,-0.7,1.8,2470.893,13.28,0.042,271.4
2022-03-18T07:25:03,42.805,6.029,-0.052,0.004,-0.006,103.0,103.0,102.0,13.3,1505.2,329.4,-0.8,1.8,2470.91,13.28,0.052,274.4
2022-03-18T07:28:03,42.805,6.029,-0.062,0.0,-0.024,103.0,104.0,101.0,13.4,1505.2,328.1,-0.8,1.8,2470.899,13.28,0.061,270.0
2022-03-18T07:31:03,42.805,6.029,-0.066,0.002,0.004,103.0,103.0,103.0,13.3,1505.2,326.7,-0.8,1.8,2470.882,13.28,0.066,271.7
2022-03-18T07:34:03,42.805,6.029,-0.049,0.017,-0.019,102.0,104.0,103.0,13.4,1505.2,328.6,-0.8,1.8,2470.921,13.28,0.051,289.1
2022-03-18T07:37:03,42.805,6.029,-0.058,0.016,-0.009,104.0,103.0,103.0,13.3,1505.2,323.4,-0.7,1.8,2470.923,13.28,0.06,285.4
2022-03-18T07:40:03,42.805,6.029,-0.08,0.009,-0.015,103.0,103.0,102.0,13.4,1505.2,328.6,-0.7,1.8,2470.904,13.28,0.08,276.4
2022-03-18T07:43:03,42.805,6.029,-0.091,-0.001,-0.015,104.0,103.0,102.0,13.4,1505.2,327.9,-0.8,1.9,2470.889,13.28,0.091,269.4
2022-03-18T07:46:03,42.805,6.029,-0.048,0.02,-0.015,104.0,103.0,102.0,13.4,1505.2,324.9,-0.8,1.9,2470.881,13.29,0.052,292.6
2022-03-18T07:49:03,42.805,6.029,-0.079,0.01,-0.003,105.0,103.0,102.0,13.3,1505.2,327.4,-0.8,1.8,2470.878,13.29,0.079,277.2
2022-03-18T07:52:03,42.805,6.029,-0.069,0.022,-0.021,104.0,103.0,102.0,13.4,1505.2,329.1,-0.8,1.8,2470.909,13.29,0.072,287.7
2022-03-18T07:55:03,42.805,6.029,-0.043,0.02,-0.007,104.0,104.0,102.0,13.4,1505.2,323.4,-0.8,1.8,2470.917,13.29,0.047,294.9
2022-03-18T07:58:03,42.805,6.029,-0.045,0.025,-0.022,104.0,104.0,102.0,13.4,1505.2,323.5,-0.7,1.9,2470.904,13.28,0.051,299.1
2022-03-18T08:04:03,42.805,6.029,-0.069,0.016,-0.024,105.0,104.0,103.0,13.4,1505.2,328.7,-0.7,1.8,2470.943,13.28,0.07,283.1
2022-03-18T08:07:03,42.805,6.029,-0.093,0.027,-0.013,104.0,104.0,102.0,13.4,1505.2,328.7,-0.8,1.8,2470.929,13.28,0.096,286.2
2022-03-18T08:10:03,42.805,6.029,-0.056,0.014,0.035,104.0,104.0,103.0,13.4,1505.2,327.0,-0.7,1.8,2470.943,13.28,0.057,284.0
2022-03-18T08:13:03,42.805,6.029,-0.05,0.022,-0.008,104.0,103.0,102.0,13.4,1505.2,331.6,-0.8,1.8,2470.92,13.28,0.054,293.7
2022-03-18T08:16:03,42.805,6.029,-0.048,0.017,0.007,104.0,103.0,103.0,13.3,1505.2,327.7,-0.8,1.8,2470.881,13.28,0.05,289.5
2022-03-18T08:19:03,42.805,6.029,-0.062,0.017,-0.062,104.0,103.0,103.0,13.4,1505.2,325.4,-0.8,1.8,2470.923,13.28,0.064,285.3
2022-03-18T08:22:03,42.805,6.029,-0.048,0.031,-0.009,105.0,104.0,103.0,13.3,1505.2,327.2,-0.8,1.8,2470.935,13.28,0.057,302.9
2022-03-18T08:25:03,42.805,6.029,-0.056,0.026,-0.018,105.0,104.0,103.0,13.4,1505.2,327.4,-0.7,1.8,2470.89,13.28,0.061,294.9
2022-03-18T08:28:03,42.805,6.029,-0.055,0.013,-0.04,105.0,104.0,102.0,13.4,1505.2,329.0,-0.8,1.8,2470.897,13.28,0.056,283.3
2022-03-18T08:31:03,42.805,6.029,-0.07,0.011,-0.033,104.0,104.0,102.0,13.4,1505.2,329.0,-0.8,1.8,2470.911,13.28,0.07,278.9
2022-03-18T08:34:03,42.805,6.029,-0.047,-0.01,-0.013,104.0,104.0,103.0,13.3,1505.2,324.3,-0.8,1.8,2470.891,13.29,0.048,258.0
2022-03-18T08:37:03,42.805,6.029,-0.034,0.012,-0.042,104.0,105.0,102.0,13.4,1505.2,327.9,-0.8,1.9,2470.894,13.29,0.036,289.4
2022-03-18T08:40:03,42.805,6.029,-0.06,0.011,-0.007,104.0,104.0,102.0,13.4,1505.2,329.6,-0.8,1.8,2470.887,13.28,0.06,280.4
2022-03-18T08:43:03,42.805,6.029,-0.074,0.02,0.0,105.0,104.0,102.0,13.4,1505.2,326.5,-0.8,1.8,2470.889,13.29,0.076,285.1
2022-03-18T08:46:03,42.805,6.029,-0.046,0.032,0.011,106.0,104.0,103.0,13.4,1505.2,330.1,-0.7,1.8,2470.866,13.29,0.056,304.8
2022-03-18T08:49:03,42.805,6.029,-0.059,-0.002,-0.013,103.0,104.0,103.0,13.4,1505.2,325.2,-0.7,1.8,2470.882,13.28,0.059,268.1
2022-03-18T08:52:03,42.805,6.029,-0.042,-0.006,0.003,105.0,104.0,103.0,13.4,1505.2,328.8,-0.7,1.8,2470.857,13.28,0.042,261.9
2022-03-18T08:55:03,42.805,6.029,-0.045,-0.003,0.008,104.0,105.0,103.0,13.3,1505.2,322.7,-0.7,1.8,2470.892,13.29,0.045,266.2
2022-03-18T08:58:03,42.805,6.029,-0.064,0.049,-0.025,104.0,104.0,103.0,13.3,1505.2,329.0,-0.7,1.8,2470.88,13.29,0.08,307.4
2022-03-18T09:04:03,42.805,6.029,-0.041,0.009,0.001,104.0,105.0,102.0,13.4,1505.2,331.0,-0.8,1.8,2470.874,13.28,0.041,282.4
2022-03-18T09:07:03,42.805,6.029,-0.034,0.004,-0.036,104.0,104.0,103.0,13.3,1505.2,330.6,-0.7,1.8,2470.872,13.28,0.034,276.7
2022-03-18T09:10:03,42.805,6.029,-0.053,0.015,-0.018,105.0,103.0,104.0,13.4,1505.2,324.8,-0.7,1.8,2470.841,13.28,0.055,285.8
2022-03-18T09:13:03,42.805,6.029,-0.036,0.015,-0.008,106.0,104.0,103.0,13.4,1505.2,327.8,-0.8,1.8,2470.873,13.28,0.039,292.6
2022-03-18T09:16:03,42.805,6.029,-0.024,0.006,-0.001,105.0,105.0,103.0,13.3,1505.2,322.7,-0.8,1.8,2470.877,13.28,0.024,284.0
2022-03-18T09:19:03,42.805,6.029,-0.03,-0.001,-0.008,105.0,105.0,102.0,13.4,1505.2,328.3,-0.8,1.8,2470.841,13.29,0.03,268.1
2022-03-18T09:22:03,42.805,6.029,-0.054,0.018,-0.012,106.0,105.0,103.0,13.4,1505.2,329.1,-0.8,1.8,2470.861,13.29,0.056,288.4
2022-03-18T09:25:03,42.805,6.029,-0.043,0.008,-0.018,104.0,104.0,104.0,13.4,1505.2,325.7,-0.8,1.9,2470.832,13.29,0.043,280.5
2022-03-18T09:28:03,42.805,6.029,-0.02,-0.005,0.006,105.0,104.0,103.0,13.3,1505.2,324.7,-0.8,1.8,2470.826,13.29,0.02,256.0
2022-03-18T09:31:03,42.805,6.029,-0.021,0.005,-0.001,105.0,103.0,104.0,13.4,1505.2,331.6,-0.7,1.8,2470.778,13.29,0.021,283.4
2022-03-18T09:34:03,42.805,6.029,-0.027,0.002,-0.003,104.0,104.0,103.0,13.4,1505.2,331.4,-0.7,1.8,2470.841,13.29,0.027,274.2
2022-03-18T09:37:03,42.805,6.029,-0.03,0.01,-0.013,105.0,105.0,103.0,13.4,1505.2,324.7,-0.7,1.8,2470.736,13.29,0.031,288.4
2022-03-18T09:40:03,42.805,6.029,-0.047,0.008,-0.023,105.0,105.0,102.0,13.3,1505.2,324.8,-0.7,1.8,2470.683,13.29,0.047,279.7
2022-03-18T09:43:03,42.805,6.029,-0.053,0.007,0.017,104.0,105.0,102.0,13.4,1505.2,327.6,-0.8,1.8,2470.694,13.29,0.053,277.5
2022-03-18T09:46:03,42.805,6.029,-0.035,0.017,0.013,106.0,103.0,102.0,13.3,1505.2,329.3,-0.7,1.8,2470.685,13.29,0.038,295.9
2022-03-18T09:49:03,42.805,6.029,-0.028,0.007,0.01,105.0,104.0,102.0,13.4,1505.2,324.6,-0.8,1.8,2470.67,13.29,0.028,284.0
2022-03-18T09:52:03,42.805,6.029,-0.037,0.012,0.017,105.0,105.0,103.0,13.4,1505.2,328.2,-0.7,1.8,2470.71,13.29,0.038,288.0